Location: Bothwell
(42.3833°S, 147.0000°E)
Time: 22:37:22
(UTC+11:00)

RS-44 - Pass Details

Date: 29 September 2022
Orbit: 1175 x 1510 km, 82.5° (Epoch: 29 November)

Event Time Altitude Azimuth Distance (km) Brightness Sun altitude
Exits shadow 00:20:47 31° 230° (SW) 2,408 ? -45.3°
Drops below altitude 10° 00:27:07 10° 187° (S) 3,699 ? -45.1°
Sets 00:30:33 0° 177° (S) 4,688 ? -45.0°
